Port Isabel, TX

1:35 PM CDT on June 28, 2017 (GMT -0500)
Port Isabel-Cameron County

Weather History for KPIL - September, 2013

Change the Weather History Date:

Wednesday, September 18, 2013

  Actual Average (KBRO) Record (KBRO)
Temperature  
Mean Temperature 82 °F -  
Max Temperature 87 °F 88 °F 98 °F (2016)
Min Temperature 79 °F 71 °F 59 °F (1901)
Cooling Degree Days 18    
Growing Degree Days 32 (Base 50)    
Moisture  
Dew Point 76 °F    
Average Humidity 80    
Maximum Humidity 90    
Minimum Humidity 67    
Precipitation  
Precipitation 0.00 in - - ()
Sea Level Pressure  
Sea Level Pressure 29.88 in    
Wind  
Wind Speed 8 mph (East)    
Max Wind Speed 15 mph    
Max Gust Speed -    
Visibility 9 miles    
Events      
Averages and records for this station are not official NWS values.
T = Trace of Precipitation, MM = Missing Value Source: NWS Daily Summary

Daily Weather History Graph

Daily Weather History Graph

Search for Another Location

Airport or City:

Trip Planner

Search our weather history database for the weather conditions in past years. The results will help you decide how hot, cold, wet, or windy it might be!

Date:

Astronomy

Sep. 18, 2013 Rise Set
Actual Time 7:16 AM CDT 7:29 PM CDT
Civil Twilight 6:53 AM CDT 7:53 PM CDT
Nautical Twilight 6:26 AM CDT 8:19 PM CDT
Astronomical Twilight 5:59 AM CDT 8:46 PM CDT
Moon 6:55 PM CDT (9/18) 6:21 AM CDT (9/18)
Length of Visible Light 12h 59m
Length of Day
12h 13m
Waxing Gibbous, 99% of the Moon is Illuminated
Sep 18
Waxing Gibbous
Sep 19
Full
Sep 26
Last Quarter
Oct 4
New
Oct 11
First Quarter

Hourly Weather History & Observations

Time (CDT) Temp. Heat Index Dew Point Humidity Pressure Visibility Wind Dir Wind Speed Gust Speed Precip Events Conditions
12:53 AM 80.1 °F 85.4 °F 75.9 °F 87% 29.92 in 9.0 mi East 6.9 mph - N/A   Clear
1:53 AM 80.1 °F 85.1 °F 75.0 °F 85% 29.91 in 10.0 mi East 6.9 mph - N/A   Clear
2:53 AM 80.1 °F 85.4 °F 75.9 °F 87% 29.90 in 9.0 mi ESE 6.9 mph - N/A   Clear
3:53 AM 80.1 °F 85.4 °F 75.9 °F 87% 29.88 in 9.0 mi East 6.9 mph - N/A   Clear
4:53 AM 80.1 °F 85.4 °F 75.9 °F 87% 29.87 in 9.0 mi East 5.8 mph - N/A   Clear
5:53 AM 79.0 °F - 75.9 °F 90% 29.87 in 9.0 mi East 5.8 mph - N/A   Clear
6:53 AM 79.0 °F - 75.9 °F 90% 29.88 in 9.0 mi East 5.8 mph - N/A   Clear
7:53 AM 80.1 °F 85.4 °F 75.9 °F 87% 29.90 in 8.0 mi East 4.6 mph - N/A   Partly Cloudy
8:53 AM 82.9 °F 90.8 °F 75.9 °F 79% 29.91 in 9.0 mi ESE 8.1 mph - N/A   Clear
9:53 AM 84.9 °F 93.3 °F 75.0 °F 72% 29.93 in 9.0 mi East 12.7 mph - N/A   Partly Cloudy
10:53 AM 84.9 °F 94.1 °F 75.9 °F 74% 29.93 in 9.0 mi East 12.7 mph - N/A   Partly Cloudy
11:53 AM 86.0 °F 96.0 °F 75.9 °F 72% 29.92 in 9.0 mi East 12.7 mph - N/A   Clear
12:53 PM 86.0 °F 93.8 °F 73.9 °F 67% 29.91 in 9.0 mi East 12.7 mph - N/A   Clear
1:53 PM 84.9 °F 94.1 °F 75.9 °F 74% 29.88 in 9.0 mi East 15.0 mph - N/A   Scattered Clouds
2:53 PM 84.9 °F 92.1 °F 73.9 °F 69% 29.87 in 9.0 mi ENE 11.5 mph - N/A   Clear
3:53 PM 84.0 °F 92.6 °F 75.9 °F 76% 29.85 in 9.0 mi ENE 6.9 mph - 0.00 in   Clear
4:53 PM 84.0 °F 92.6 °F 75.9 °F 76% 29.85 in 9.0 mi ESE 11.5 mph - N/A   Partly Cloudy
5:53 PM 82.9 °F 90.8 °F 75.9 °F 79% 29.85 in 9.0 mi East 10.4 mph - N/A   Clear
6:53 PM 82.9 °F 90.8 °F 75.9 °F 79% 29.85 in 9.0 mi East 5.8 mph - N/A   Clear
7:53 PM 82.0 °F 89.4 °F 75.9 °F 82% 29.85 in 10.0 mi East 6.9 mph - N/A   Scattered Clouds
8:53 PM 81.0 °F 87.3 °F 75.9 °F 85% 29.86 in 10.0 mi East 6.9 mph - N/A   Partly Cloudy
9:53 PM 82.0 °F 88.6 °F 75.0 °F 79% 29.88 in 10.0 mi ESE 10.4 mph - N/A   Partly Cloudy
10:53 PM 81.0 °F 86.7 °F 75.0 °F 82% 29.88 in 10.0 mi ESE 8.1 mph - N/A   Clear
11:53 PM 80.1 °F 85.1 °F 75.0 °F 85% 29.88 in 10.0 mi ESE 5.8 mph - N/A   Clear